Hourly Data Report for April 11, 2018

TORONTO CITY
ONTARIO
Current Station Operator: ECCC - MSC

43°40'00.000" N
79°24'00.000" W
112.50 m
6158355
71508
XTO

Download Data

Hourly Data (April 2018)
Hourly Data Report for April 11, 2018
TIME
LST
Temp Definition
°C
Dew Point Definition
°C
Rel Hum Definition
%
Precip. Amount Definition
mm

Wind Dir Definition
10's deg

Wind Spd Definition
km/h
Visibility Definition
km
Stn Press Definition
kPa
Hmdx Definition


Wind Chill Definition


Weather Definition


00:00 1.6 -2.7 73 0.0 LegendMM LegendMM   100.65     LegendNANA
01:00 1.3 -3.1 72 0.0 LegendMM LegendMM   100.64     LegendNANA
02:00 1.6 -1.9 77 0.0 LegendMM LegendMM   100.57     LegendNANA
03:00 1.7 -1.6 79 0.0 LegendMM LegendMM   100.51     LegendNANA
04:00 1.5 -1.4 81 0.0 LegendMM LegendMM   100.46     LegendNANA
05:00 1.8 -1.6 79 0.0 LegendMM LegendMM   100.44     LegendNANA
06:00 1.8 -1.4 79 0.0 LegendMM LegendMM   100.41     LegendNANA
07:00 2.3 -1.1 78 0.0 LegendMM LegendMM   100.39     LegendNANA
08:00 3.6 -2.5 65 0.0 LegendMM LegendMM   100.39     LegendNANA
09:00 4.4 -1.8 64 0.0 LegendMM LegendMM   100.30     LegendNANA
10:00 4.8 -1.5 63 0.0 LegendMM LegendMM   100.30     LegendNANA
11:00 4.8 -1.1 66 0.0 LegendMM LegendMM   100.25     LegendNANA
12:00 4.9 -0.7 67 0.0 LegendMM LegendMM   100.19     LegendNANA
13:00 5.3 -0.2 68 0.0 LegendMM LegendMM   100.14     LegendNANA
14:00 4.6 1.1 78 0.0 LegendMM LegendMM   100.11     LegendNANA
15:00 3.9 1.3 83 0.7 LegendMM LegendMM   100.11     LegendNANA
16:00 4.2 0.5 77 0.0 LegendMM LegendMM   100.11     LegendNANA
17:00 4.7 0.6 74 0.2 LegendMM LegendMM   100.11     LegendNANA
18:00 5.3 0.9 74 0.0 LegendMM LegendMM   100.13     LegendNANA
19:00 4.6 0.8 76 0.0 LegendMM LegendMM   100.13     LegendNANA
20:00 4.1 1.0 81 0.0 LegendMM LegendMM   100.22     LegendNANA
21:00 3.6 0.9 83 0.0 LegendMM LegendMM   100.27     LegendNANA
22:00 2.9 0.5 84 0.0 LegendMM LegendMM   100.27     LegendNANA
23:00 2.6 0.6 86 0.0 LegendMM LegendMM   100.26     LegendNANA

Notes on Data Quality.

Legend

  • E = Estimated
  • M = Missing
  • NA = Not Available*
  • [empty] = Indicates an unobserved value
Date modified: